TimeCST,TemperatureF,Dew PointF,Humidity,Sea Level PressureIn,VisibilityMPH,Wind Direction,Wind SpeedMPH,Gust SpeedMPH,PrecipitationIn,Events,Conditions,WindDirDegrees,DateUTC
12:15 AM,33.8,26.6,75,30.08,10.0,West,4.6,-,N/A,,Scattered Clouds,280,2012-11-07 06:15:00
12:35 AM,37.4,30.2,75,30.08,10.0,WNW,8.1,-,N/A,,Scattered Clouds,290,2012-11-07 06:35:00
12:55 AM,41.0,30.2,65,30.08,10.0,WNW,6.9,-,N/A,,Scattered Clouds,300,2012-11-07 06:55:00
1:15 AM,39.2,30.2,70,30.08,10.0,WNW,6.9,-,N/A,,Scattered Clouds,300,2012-11-07 07:15:00
1:35 AM,39.2,30.2,70,30.09,10.0,WNW,5.8,-,N/A,,Scattered Clouds,290,2012-11-07 07:35:00
1:55 AM,39.2,30.2,70,30.09,10.0,WNW,6.9,-,N/A,,Scattered Clouds,290,2012-11-07 07:55:00
2:15 AM,39.2,30.2,70,30.10,10.0,NW,6.9,-,N/A,,Clear,310,2012-11-07 08:15:00
2:55 AM,41.0,30.2,65,30.09,10.0,NNW,6.9,-,N/A,,Scattered Clouds,330,2012-11-07 08:55:00
3:15 AM,39.2,30.2,70,30.10,10.0,NW,4.6,-,N/A,,Scattered Clouds,320,2012-11-07 09:15:00
3:35 AM,39.2,30.2,70,30.10,10.0,NNW,4.6,-,N/A,,Scattered Clouds,340,2012-11-07 09:35:00
3:55 AM,39.2,30.2,70,30.10,10.0,NNW,8.1,-,N/A,,Scattered Clouds,340,2012-11-07 09:55:00
4:15 AM,39.2,30.2,70,30.11,10.0,North,8.1,-,N/A,,Scattered Clouds,360,2012-11-07 10:15:00
4:35 AM,37.4,30.2,75,30.11,10.0,North,5.8,-,N/A,,Scattered Clouds,10,2012-11-07 10:35:00
4:55 AM,37.4,30.2,75,30.13,10.0,NNW,4.6,-,N/A,,Scattered Clouds,340,2012-11-07 10:55:00
5:15 AM,37.4,30.2,75,30.13,10.0,North,5.8,-,N/A,,Scattered Clouds,350,2012-11-07 11:15:00
5:35 AM,37.4,30.2,75,30.14,10.0,NNE,3.5,-,N/A,,Scattered Clouds,20,2012-11-07 11:35:00
5:55 AM,37.4,30.2,75,30.15,10.0,WNW,4.6,-,N/A,,Scattered Clouds,290,2012-11-07 11:55:00
6:15 AM,35.6,28.4,75,30.15,10.0,Calm,Calm,-,N/A,,Scattered Clouds,0,2012-11-07 12:15:00
6:35 AM,35.6,28.4,75,30.16,10.0,Calm,Calm,-,N/A,,Scattered Clouds,0,2012-11-07 12:35:00
6:55 AM,35.6,28.4,75,30.17,10.0,West,3.5,-,N/A,,Scattered Clouds,260,2012-11-07 12:55:00
7:15 AM,35.6,28.4,75,30.17,10.0,West,3.5,-,N/A,,Clear,280,2012-11-07 13:15:00
7:35 AM,35.6,28.4,75,30.18,10.0,West,3.5,-,N/A,,Clear,280,2012-11-07 13:35:00
7:55 AM,37.4,30.2,75,30.18,10.0,Calm,Calm,-,N/A,,Clear,0,2012-11-07 13:55:00
8:15 AM,39.2,30.2,70,30.18,10.0,Calm,Calm,-,N/A,,Clear,0,2012-11-07 14:15:00
8:35 AM,41.0,32.0,70,30.19,10.0,Calm,Calm,-,N/A,,Clear,0,2012-11-07 14:35:00
8:55 AM,42.8,33.8,70,30.19,10.0,Calm,Calm,-,N/A,,Clear,0,2012-11-07 14:55:00
9:15 AM,44.6,33.8,66,30.19,10.0,Calm,Calm,-,N/A,,Clear,0,2012-11-07 15:15:00
9:35 AM,46.4,33.8,62,30.20,10.0,Calm,Calm,-,N/A,,Clear,0,2012-11-07 15:35:00
9:55 AM,46.4,33.8,62,30.21,10.0,NNW,4.6,-,N/A,,Clear,340,2012-11-07 15:55:00
10:15 AM,48.2,33.8,58,30.20,10.0,Calm,Calm,-,N/A,,Clear,0,2012-11-07 16:15:00
10:35 AM,48.2,33.8,58,30.21,10.0,Calm,Calm,-,N/A,,Clear,0,2012-11-07 16:35:00
10:55 AM,50.0,30.2,47,30.20,10.0,Calm,Calm,-,N/A,,Clear,0,2012-11-07 16:55:00
11:15 AM,50.0,32.0,50,30.19,10.0,ENE,4.6,-,N/A,,Clear,60,2012-11-07 17:15:00
11:35 AM,51.8,30.2,44,30.18,10.0,Calm,Calm,-,N/A,,Clear,0,2012-11-07 17:35:00
11:55 AM,51.8,30.2,44,30.17,10.0,NNW,5.8,-,N/A,,Clear,340,2012-11-07 17:55:00
12:15 PM,53.6,30.2,41,30.16,10.0,NW,5.8,-,N/A,,Clear,320,2012-11-07 18:15:00
12:35 PM,53.6,28.4,38,30.15,-9999.0,Calm,Calm,-,0.03,,Clear,0,2012-11-07 18:35:00
12:55 PM,53.6,30.2,41,30.14,10.0,Calm,Calm,-,N/A,,Unknown,0,2012-11-07 18:55:00
1:15 PM,53.6,30.2,41,30.13,10.0,Calm,Calm,-,N/A,,Clear,0,2012-11-07 19:15:00
1:35 PM,53.6,28.4,38,30.12,10.0,Calm,Calm,-,N/A,,Clear,0,2012-11-07 19:35:00
1:55 PM,55.4,30.2,38,30.11,10.0,Calm,Calm,-,N/A,,Clear,0,2012-11-07 19:55:00
2:15 PM,55.4,28.4,36,30.11,10.0,Calm,Calm,-,N/A,,Clear,0,2012-11-07 20:15:00
2:35 PM,55.4,28.4,36,30.10,10.0,Calm,Calm,-,N/A,,Clear,0,2012-11-07 20:35:00
2:55 PM,55.4,28.4,36,30.10,10.0,Calm,Calm,-,N/A,,Clear,0,2012-11-07 20:55:00
3:15 PM,55.4,28.4,36,30.09,10.0,ESE,3.5,-,N/A,,Clear,110,2012-11-07 21:15:00
3:35 PM,55.4,28.4,36,30.09,10.0,Calm,Calm,-,N/A,,Clear,0,2012-11-07 21:35:00
3:55 PM,55.4,28.4,36,30.10,10.0,Calm,Calm,-,N/A,,Clear,0,2012-11-07 21:55:00
4:15 PM,55.4,28.4,36,30.09,10.0,Calm,Calm,-,N/A,,Clear,0,2012-11-07 22:15:00
4:35 PM,55.4,30.2,38,30.09,10.0,Calm,Calm,-,N/A,,Clear,0,2012-11-07 22:35:00
4:55 PM,53.6,30.2,41,30.09,10.0,ESE,3.5,-,N/A,,Clear,120,2012-11-07 22:55:00
5:15 PM,51.8,30.2,44,30.09,10.0,ESE,4.6,-,N/A,,Clear,110,2012-11-07 23:15:00
5:35 PM,46.4,32.0,57,30.09,10.0,ESE,5.8,-,N/A,,Clear,110,2012-11-07 23:35:00
5:55 PM,44.6,32.0,61,30.09,7.0,ESE,5.8,-,N/A,,Scattered Clouds,120,2012-11-07 23:55:00
6:15 PM,44.6,32.0,61,30.09,10.0,SE,5.8,-,N/A,,Scattered Clouds,130,2012-11-08 00:15:00
6:35 PM,44.6,30.2,57,30.09,10.0,ESE,6.9,-,N/A,,Clear,120,2012-11-08 00:35:00
6:55 PM,42.8,30.2,61,30.09,10.0,SE,6.9,-,N/A,,Scattered Clouds,130,2012-11-08 00:55:00
7:15 PM,42.8,32.0,66,30.09,10.0,SE,6.9,-,N/A,,Scattered Clouds,130,2012-11-08 01:15:00
7:35 PM,42.8,32.0,66,30.09,10.0,SE,6.9,-,N/A,,Scattered Clouds,140,2012-11-08 01:35:00
7:55 PM,42.8,32.0,66,30.09,10.0,SSE,6.9,-,N/A,,Scattered Clouds,150,2012-11-08 01:55:00
8:15 PM,41.0,32.0,70,30.09,10.0,SE,8.1,-,N/A,,Scattered Clouds,140,2012-11-08 02:15:00
8:35 PM,39.2,32.0,75,30.09,10.0,SSE,8.1,-,N/A,,Clear,150,2012-11-08 02:35:00
8:55 PM,41.0,32.0,70,30.09,10.0,SE,5.8,-,N/A,,Scattered Clouds,140,2012-11-08 02:55:00
9:15 PM,41.0,32.0,70,30.10,10.0,SSE,5.8,-,N/A,,Scattered Clouds,160,2012-11-08 03:15:00
9:35 PM,39.2,32.0,75,30.10,10.0,SE,8.1,-,N/A,,Scattered Clouds,140,2012-11-08 03:35:00
9:55 PM,39.2,32.0,75,30.10,10.0,SSE,8.1,-,N/A,,Scattered Clouds,150,2012-11-08 03:55:00
10:15 PM,39.2,32.0,75,30.10,10.0,SSE,8.1,-,N/A,,Scattered Clouds,150,2012-11-08 04:15:00
10:35 PM,41.0,33.8,76,30.09,10.0,SSE,9.2,-,N/A,,Scattered Clouds,150,2012-11-08 04:35:00
10:55 PM,39.2,32.0,75,30.09,10.0,SSE,8.1,-,N/A,,Scattered Clouds,160,2012-11-08 04:55:00
11:15 PM,39.2,32.0,75,30.09,10.0,SSE,9.2,-,N/A,,Scattered Clouds,150,2012-11-08 05:15:00
11:35 PM,41.0,33.8,76,30.09,10.0,SSE,8.1,-,N/A,,Scattered Clouds,150,2012-11-08 05:35:00
11:55 PM,39.2,33.8,81,30.08,10.0,SE,9.2,-,N/A,,Scattered Clouds,140,2012-11-08 05:55:00